Regional Weather Roundup
Issued by NWS

Home | Current Version | Previous Version | Text Only | Print | Product List | Glossary On
Versions: 1 2 3 4 5 6 7 8 9 10 11 12 13 14 15 16 17 18 19 20 21 22 23 24 25 26 27 28 29 30 31 32 33 34 35 36 37 38 39 40 41 42 43 44 45 46 47 48 49 50
000
ASUS43 KLMK 302210
RWRKY
KENTUCKY REGIONAL WEATHER ROUNDUP
NATIONAL WEATHER SERVICE LOUISVILLE KY
600 PM EDT TUE SEP 30 2014

NOTE "FAIR" INDICATES FEW OR NO CLOUDS BELOW 12,000 FEET
WITH NO SIGNIFICANT WEATHER AND/OR OBSTRUCTIONS TO VISIBILITY.

KYZ001>023-026-027-061>063-070>075-302300-
WESTERN AND SOUTH CENTRAL KENTUCKY

CITY           SKY/WX    TMP DP  RH WIND       PRES   REMARKS
PADUCAH        SUNNY     86  53  32 CALM      29.87F
HENDERSON      NOT AVBL
OWENSBORO      MOSUNNY   84  54  35 NW7       29.88S
HOPKINSVILLE   MOSUNNY   85  51  30 SE3       29.88S
BOWLING GREEN  PTSUNNY   86  51  29 CALM      29.88F
GLASGOW        MOSUNNY   83  49  30 CALM      29.89S
$$

KYZ024-025-028>034-038-045-046-053-302300-
NORTH CENTRAL KENTUCKY

CITY           SKY/WX    TMP DP  RH WIND       PRES   REMARKS
LOUISVILLE/SDF PTSUNNY   83  57  41 NW14      29.88R
LOUISVILLE/LOU MOSUNNY   82  57  42 NW7       29.88S
FORT KNOX      PTSUNNY   81  59  46 NW5       29.88S
$$

KYZ035>037-039>044-047>052-055>060-089>105-302300-
NORTHEAST KENTUCKY

CITY           SKY/WX    TMP DP  RH WIND       PRES   REMARKS
LEXINGTON      MOSUNNY   79  56  45 NW6       29.90R
COVINGTON      PTSUNNY   73  58  59 N10       29.90S
FRANKFORT      PTSUNNY   80  57  45 NW6       29.88S
$$

KYZ054-064>069-076>088-106>120-302300-
SOUTHEAST KENTUCKY

CITY           SKY/WX    TMP DP  RH WIND       PRES   REMARKS
JACKSON        SUNNY     78  56  46 CALM      29.91F
LONDON         SUNNY     80  53  39 CALM      29.92S
SOMERSET       CLOUDY    81  50  34 S6        29.91S
MIDDLESBORO    SUNNY     79  55  43 N5        29.92S
MONTICELLO     CLEAR     82  54  38 CALM      29.92S
$$




USA.gov is the U.S. government's official web portal to all federal, state and local government web resources and services.